Theta_e
342 334 334 339 344 348 350 351 353 357 357 348 349 354 356 360 358 359 358 354 353 352 349 346 343 345 350 347 346 348 346 346 347 345 341 346 348 347 350 347 346 348 350 351 351 350 347 346 347 348 349 347 347 348 348 349 348 348 348 348 349 348 348 348 349 350 350 351 350 351 352 352 352 351 351 352 350 349 350 350 349 350 351 351 353 354 353 353 351 351 350 349 347 348 348 347 344
337 336 342 345 347 352 353 354 354 353 350 345 350 357 358 360 359 358 358 355 356 353 348 344 344 349 351 348 346 346 347 347 346 346 346 347 348 349 350 347 348 350 351 351 351 350 349 347 346 348 347 345 346 346 347 347 348 348 347 348 348 348 347 348 350 350 351 351 352 352 352 353 352 352 352 351 350 350 350 351 351 350 351 352 353 354 353 353 350 347 346 344 344 347 349 347 342
335 343 347 348 350 352 354 357 354 348 346 343 349 361 359 359 360 358 357 357 357 350 346 345 348 350 349 349 348 348 348 346 344 344 346 347 348 349 350 348 349 351 351 350 350 349 348 347 347 347 343 342 344 344 345 346 347 347 347 348 349 349 348 349 350 351 351 351 351 352 352 353 353 352 352 351 350 351 351 351 352 352 351 352 353 352 353 352 348 345 345 343 343 346 348 347 344
339 346 348 350 353 354 357 360 358 350 345 343 347 359 361 359 360 358 357 356 353 347 346 348 351 350 350 351 349 349 348 346 345 345 345 348 349 349 350 349 350 351 350 349 349 349 347 346 345 345 342 343 343 344 346 347 348 347 348 349 349 349 348 349 350 351 351 350 350 350 352 352 352 352 352 350 349 351 351 351 352 353 352 352 352 351 351 351 347 347 348 345 344 346 347 348 348
344 347 348 353 355 355 360 361 359 352 347 348 349 359 361 358 359 358 357 354 350 347 346 349 352 350 350 351 348 349 348 345 346 347 346 348 349 350 350 349 351 351 350 350 349 349 347 345 344 343 343 345 345 346 347 348 349 349 350 349 349 349 349 349 349 350 350 349 349 350 351 351 351 351 352 349 349 351 350 351 352 352 351 350 351 351 350 349 347 349 351 346 343 344 345 347 348
346 349 350 353 354 355 359 356 354 353 355 358 355 360 360 356 359 357 356 354 352 349 348 350 351 351 350 349 347 348 347 346 346 348 348 349 350 350 351 350 351 351 351 350 349 349 347 344 343 344 345 347 347 348 349 351 352 349 349 349 348 348 348 348 348 350 350 350 350 350 350 350 352 351 351 349 348 350 350 349 350 351 350 349 351 352 351 350 349 351 351 349 346 343 345 346 347
347 351 353 354 355 356 359 355 352 357 359 361 360 360 358 357 357 356 356 355 354 352 351 350 349 351 352 348 348 348 347 348 347 348 349 350 350 351 351 351 351 351 351 351 350 349 347 343 344 346 347 348 349 350 351 352 351 348 347 346 347 348 348 347 348 350 350 350 351 351 349 349 351 351 351 349 346 350 350 348 349 350 350 350 351 351 352 351 349 350 350 350 349 347 348 348 348
349 351 354 357 359 360 358 356 356 360 361 360 361 359 357 357 356 356 357 355 356 354 352 350 348 354 352 348 351 350 349 349 348 349 349 350 350 351 351 351 351 351 351 351 350 349 347 345 346 347 349 350 350 351 351 350 347 347 347 346 347 348 347 348 348 350 350 350 351 351 349 348 349 350 351 349 346 348 350 348 348 350 349 350 350 350 350 350 349 349 350 349 350 349 349 349 349
349 351 355 358 360 358 354 356 358 361 363 361 360 359 358 357 356 357 357 357 356 354 353 350 348 354 352 349 352 350 349 350 349 349 350 350 351 351 351 351 351 351 351 350 350 349 347 346 347 348 350 351 351 352 351 349 347 347 348 347 348 349 348 348 349 350 350 349 349 350 349 348 348 348 349 349 347 348 350 350 350 350 349 349 350 350 350 350 349 349 349 349 349 349 349 348 349
350 351 356 359 357 353 349 353 357 361 363 360 360 360 358 358 357 357 357 357 355 354 352 349 350 353 351 351 352 349 350 350 349 350 349 350 351 350 351 351 351 351 351 351 350 349 347 347 348 349 351 351 351 353 351 348 347 348 348 347 348 349 349 349 349 350 349 349 349 350 350 350 348 347 348 349 348 349 349 349 349 349 349 349 349 350 350 349 349 348 349 348 349 349 349 349 348
352 354 356 358 353 349 348 352 357 362 362 360 360 359 359 358 358 358 357 357 355 354 351 349 352 351 350 351 351 350 350 350 349 349 349 350 351 350 351 351 351 351 352 351 350 349 348 348 349 349 350 351 351 352 350 349 348 349 349 349 350 350 349 348 349 349 349 350 350 350 350 349 349 348 348 349 348 348 348 348 349 349 350 349 349 349 348 347 347 347 347 348 348 348 349 350 350
354 358 358 357 353 352 353 354 358 363 362 362 361 359 358 357 358 358 358 357 355 354 351 351 352 349 350 351 350 350 349 350 349 349 349 350 350 350 351 350 351 351 352 352 351 350 349 349 349 349 350 350 350 350 350 350 350 351 351 351 351 350 349 348 348 349 350 350 350 350 350 350 350 349 348 349 349 348 347 348 349 348 349 349 348 348 348 347 347 346 347 348 348 348 349 349 350
352 357 360 357 355 357 357 356 360 363 362 363 360 358 357 358 359 357 357 356 355 355 352 350 349 349 351 350 349 348 348 350 349 349 350 350 350 350 350 350 351 351 351 352 352 351 350 350 351 351 352 350 350 350 350 351 351 351 351 351 351 350 350 349 349 350 350 350 350 350 350 350 350 349 348 350 350 349 349 348 348 347 348 349 347 346 347 347 347 347 346 347 346 348 349 349 349
351 356 360 358 358 360 358 357 360 359 360 362 359 357 358 359 358 355 356 356 356 355 351 348 346 350 351 350 349 346 347 349 349 349 350 350 350 350 350 351 351 351 351 351 352 351 350 352 352 351 351 351 350 351 351 350 351 351 351 351 352 351 350 349 349 350 351 351 350 349 350 350 349 348 349 350 350 350 350 348 347 347 348 349 348 346 346 346 347 346 345 347 347 347 348 349 349
349 356 361 360 358 357 357 359 361 357 358 361 359 357 359 358 355 354 356 357 356 351 348 348 346 351 351 349 349 346 348 349 349 350 350 350 350 350 350 351 351 351 351 351 352 351 350 351 352 350 351 350 350 351 352 351 351 350 351 351 351 351 350 349 349 350 351 351 350 349 350 350 349 348 348 349 350 350 350 348 347 347 348 349 348 347 346 346 347 347 348 348 347 347 347 348 349
349 355 360 360 356 354 356 361 363 359 358 361 358 358 360 358 354 355 356 354 352 348 348 348 346 350 349 347 347 347 349 349 349 350 350 350 350 350 350 351 351 351 351 351 351 351 350 351 351 350 350 350 350 351 353 352 351 350 351 351 350 350 350 349 349 350 351 350 350 350 350 350 350 348 347 348 350 350 349 349 348 349 349 349 349 348 346 344 345 347 347 346 345 346 349 349 349
349 354 360 358 355 354 357 362 364 360 360 361 359 360 360 358 356 356 354 352 351 350 350 348 346 347 347 347 348 349 349 349 350 349 349 350 350 350 350 351 351 351 351 351 351 350 350 351 350 350 349 350 351 351 352 352 351 350 351 351 349 350 350 349 349 349 350 350 349 349 350 350 350 349 348 348 349 350 349 349 349 350 349 349 350 349 347 344 344 346 346 347 347 348 350 350 350
351 357 359 355 356 358 359 363 363 361 362 362 361 361 359 359 358 355 353 353 352 352 351 349 348 348 349 351 350 350 349 350 350 349 349 349 349 349 350 350 350 351 351 350 350 350 349 350 350 350 349 349 350 350 351 350 351 351 350 350 350 350 348 347 347 348 349 348 347 347 349 350 350 350 350 348 349 350 349 349 349 349 349 349 350 349 348 348 348 349 349 350 351 349 350 350 351
351 357 358 355 359 361 358 360 360 359 362 362 361 360 358 359 357 355 355 354 353 353 353 350 350 349 350 351 350 350 350 350 349 348 348 348 348 348 349 349 350 350 350 349 350 350 349 350 350 349 349 349 349 350 351 350 350 350 350 350 350 349 347 346 347 347 348 347 347 347 347 349 350 350 350 349 349 350 350 349 348 349 349 349 349 349 349 350 351 351 351 351 351 351 351 352 352
349 354 357 356 359 360 357 358 358 359 362 361 361 359 358 359 357 356 356 354 353 354 353 351 351 349 348 349 350 350 350 350 349 348 348 348 348 347 348 349 349 350 349 349 350 350 349 350 350 349 349 349 350 350 351 351 351 350 350 350 350 349 347 347 348 348 348 347 346 347 347 349 350 350 350 350 349 349 349 348 348 349 349 347 346 348 350 350 349 350 350 350 350 350 351 352 351
350 353 356 356 357 361 359 357 358 358 361 361 360 360 360 358 357 357 356 355 355 355 352 351 350 349 347 348 350 350 349 349 348 348 347 347 347 347 347 348 348 349 349 349 350 350 349 349 350 349 349 348 349 350 351 351 351 351 350 350 350 350 348 346 346 347 348 347 346 347 347 349 350 350 350 350 350 350 350 349 350 350 348 346 346 348 350 349 348 349 348 348 349 349 350 350 349
352 353 354 353 355 361 360 356 357 358 359 361 360 361 360 357 357 355 355 356 355 354 352 350 348 348 348 347 349 351 350 349 348 348 349 348 348 348 347 347 348 349 349 349 350 350 350 350 350 350 350 348 349 350 351 351 351 352 351 349 349 349 347 345 345 346 347 347 347 348 348 349 350 349 349 349 350 350 350 350 350 350 348 345 346 348 347 348 349 349 348 348 349 349 348 348 347
352 353 352 353 355 360 360 356 356 357 359 361 361 360 358 358 358 355 356 357 354 352 351 350 349 349 349 349 350 349 349 349 349 349 349 349 349 348 348 348 349 349 349 349 350 350 350 350 349 350 350 349 349 349 350 350 350 352 351 349 349 349 348 346 345 346 346 347 348 348 349 349 349 349 348 348 348 348 348 348 347 345 345 344 344 345 345 346 348 348 347 348 348 349 349 348 348
351 352 351 352 357 360 359 356 356 356 359 361 359 359 358 359 358 357 358 357 353 351 351 351 351 351 352 350 350 349 349 350 349 348 348 348 348 348 349 349 349 350 350 350 350 350 351 351 350 350 350 349 348 348 349 350 350 351 351 349 349 349 348 347 345 345 345 346 347 347 348 348 348 348 348 348 348 348 348 347 344 342 342 341 341 343 344 345 346 347 347 347 348 349 348 349 349
351 352 352 355 358 360 358 355 356 357 360 360 359 360 360 359 358 358 359 355 352 351 350 351 350 351 351 349 349 350 351 351 349 348 347 347 347 347 348 348 349 349 349 350 351 351 351 350 350 350 350 349 348 348 349 349 350 351 350 349 349 349 348 348 347 346 346 346 347 347 347 347 347 347 348 348 347 347 346 344 341 339 340 340 341 342 343 345 346 346 347 347 348 348 349 349 349
350 351 353 359 358 358 359 357 357 358 359 359 359 361 360 358 358 359 358 355 352 350 349 349 349 349 349 349 348 351 351 351 350 348 348 347 347 347 347 347 348 348 349 349 350 351 350 350 350 350 350 349 348 349 349 348 349 350 350 349 349 348 348 348 348 348 347 347 347 346 345 346 347 347 345 343 342 343 342 340 338 338 339 340 342 342 343 344 345 347 347 349 349 349 350 349 347
343 350 354 359 358 357 359 358 358 359 358 359 360 361 359 358 359 360 357 353 351 351 351 350 349 349 349 349 349 352 352 351 350 349 348 347 347 347 346 346 347 347 348 348 349 350 349 349 350 351 350 349 349 349 350 349 349 350 349 349 348 348 348 348 347 348 348 348 348 347 344 344 346 344 340 338 337 338 338 337 337 338 339 340 342 343 343 344 346 348 348 349 349 348 348 345 343
335 351 358 358 358 358 358 359 358 359 359 358 359 360 359 357 359 361 356 353 352 351 352 350 350 350 349 349 349 352 353 352 351 350 349 348 347 347 346 346 346 347 347 347 349 348 349 350 350 352 351 349 349 349 350 350 349 350 350 349 348 348 348 348 347 347 347 348 348 348 344 342 343 340 337 336 336 337 336 336 337 338 339 340 342 343 345 346 348 349 348 348 348 346 345 343 342
336 354 359 360 360 359 358 357 356 357 360 357 358 361 362 361 360 360 356 353 353 352 351 350 350 350 349 350 349 351 353 353 352 351 350 349 347 347 346 346 346 346 347 347 347 346 349 351 350 352 351 350 350 349 349 350 349 349 350 350 349 349 349 348 348 347 348 348 349 349 345 341 340 338 337 338 338 338 337 337 338 339 341 343 345 346 348 349 349 349 348 348 348 347 347 345 344
348 355 357 360 361 361 357 354 355 358 358 356 358 360 362 364 360 358 355 353 354 353 352 351 350 350 349 350 349 350 352 353 353 352 351 350 348 347 346 346 345 346 347 347 347 347 351 351 350 351 352 351 351 349 349 350 350 349 350 350 349 350 350 349 349 348 348 349 348 348 345 340 339 339 338 340 341 341 341 341 342 343 345 347 348 349 349 349 349 350 349 350 349 348 349 347 346
357 356 356 359 355 356 357 353 355 360 356 355 358 358 361 365 361 359 356 353 354 354 352 351 351 350 349 350 350 349 351 353 353 352 352 351 350 348 347 346 345 346 347 347 347 349 352 351 350 351 351 351 352 350 350 350 350 349 349 350 349 350 350 350 349 349 349 349 347 345 343 340 340 340 341 342 342 343 344 345 345 346 348 348 349 349 350 349 350 351 350 351 352 349 349 347 347
357 349 349 354 352 355 360 353 355 361 356 354 358 358 363 366 362 360 356 353 355 354 353 352 351 351 350 350 350 349 350 352 353 352 352 351 350 349 348 348 347 347 347 348 349 350 353 352 350 351 352 352 353 352 351 350 350 349 350 350 349 349 350 351 351 350 350 348 344 342 341 341 341 342 343 344 343 344 345 345 346 347 348 348 350 349 350 351 351 352 349 350 352 350 349 348 348
354 346 342 349 350 353 358 355 353 358 357 356 358 361 365 364 361 360 357 354 355 355 353 352 352 352 351 350 350 350 350 351 352 353 352 351 351 350 350 349 348 348 347 348 350 351 353 352 351 353 353 352 353 352 352 351 350 350 350 350 350 350 350 350 351 351 349 347 344 342 341 341 342 343 343 344 344 344 344 345 346 347 348 349 350 350 352 351 351 352 351 348 349 350 350 347 348
345 345 342 348 351 349 352 356 355 354 358 359 360 363 364 362 361 360 358 356 354 354 354 353 353 353 352 351 350 351 351 350 351 353 352 352 351 351 351 350 349 349 348 349 351 351 352 353 353 354 353 352 353 353 352 352 351 351 351 351 351 350 350 349 350 351 350 348 346 345 344 344 345 345 344 344 345 345 345 345 346 347 348 350 351 351 352 352 350 352 353 350 347 350 352 349 348
336 339 340 346 350 349 351 358 358 355 359 361 361 364 364 361 361 360 358 357 355 353 353 352 352 352 352 352 351 351 351 350 352 353 352 352 352 352 351 351 351 351 351 351 352 352 352 353 354 354 353 352 353 353 353 352 351 352 351 351 351 351 351 350 349 350 350 349 348 347 346 346 346 346 345 344 345 346 346 346 347 348 350 351 352 353 354 353 351 352 354 354 350 349 350 349 348
333 341 342 340 341 346 355 359 356 358 362 362 361 363 364 362 361 361 359 357 356 354 353 353 352 351 353 352 352 351 351 350 351 353 352 352 352 352 352 351 352 352 353 353 353 353 352 353 354 354 353 354 353 353 353 352 352 352 351 351 351 352 351 350 349 349 350 349 348 347 346 346 346 345 345 345 346 346 346 347 348 349 351 351 352 354 355 353 352 353 353 354 354 352 349 347 346
332 340 341 339 338 341 352 358 356 358 362 362 362 362 364 363 360 360 359 357 357 355 354 354 352 351 352 352 352 351 351 351 352 352 351 351 352 352 352 352 352 353 354 354 353 353 353 354 355 355 354 354 354 353 353 352 352 352 352 352 352 352 350 349 348 349 350 350 347 346 346 346 346 345 345 346 346 347 346 347 348 350 351 351 351 353 353 352 352 353 353 353 354 354 352 348 345
325 327 329 334 337 340 349 356 357 359 359 360 363 361 361 362 360 359 359 357 357 357 356 353 352 352 351 351 352 351 350 350 350 351 351 351 351 352 352 352 352 353 354 354 354 354 354 354 355 354 353 353 353 353 352 351 351 351 352 352 352 352 350 349 350 350 350 349 346 345 345 345 346 346 346 346 346 347 347 348 349 351 352 352 352 351 351 352 353 353 355 355 353 353 352 348 345
321 321 319 320 328 341 351 358 360 358 357 358 362 360 359 361 360 358 359 358 357 358 357 355 353 352 352 352 351 351 350 349 348 349 350 350 351 352 352 353 353 353 354 354 354 354 354 355 354 353 351 351 351 351 349 349 349 349 350 350 350 352 350 350 350 349 350 349 346 345 345 345 346 346 346 346 347 347 347 349 350 352 353 352 352 352 352 353 354 354 355 356 355 353 351 349 346
321 321 316 315 324 335 342 354 362 357 355 359 361 359 359 361 360 359 358 357 357 357 356 355 355 353 352 351 351 350 349 350 348 347 349 350 351 352 353 353 353 353 353 353 354 354 354 354 353 351 351 350 350 350 349 348 348 348 349 348 348 350 349 348 348 349 350 348 345 345 345 346 347 346 347 346 347 347 348 350 351 352 352 352 352 352 354 355 356 356 355 356 356 353 350 350 348
319 319 318 317 324 334 343 354 361 357 355 360 361 355 355 360 361 360 357 356 358 357 354 355 357 355 353 350 350 349 349 349 348 346 348 350 351 352 353 353 353 353 353 353 353 354 354 353 352 351 351 350 350 350 349 348 348 348 349 349 349 350 350 350 350 352 352 349 347 347 347 348 348 347 347 347 347 347 349 350 350 351 351 351 352 353 355 356 356 356 355 355 356 354 351 351 350
318 319 321 318 320 339 357 360 356 352 349 355 357 346 345 354 359 360 358 356 358 357 355 355 356 357 355 352 350 349 349 349 348 347 348 350 351 352 353 353 353 353 353 353 353 353 353 352 351 351 351 350 351 350 349 348 348 348 349 350 351 352 353 352 352 354 353 353 352 350 348 349 348 347 347 348 347 347 349 350 351 352 352 352 353 354 355 355 356 357 356 355 356 354 352 353 351
317 318 320 320 321 341 359 359 349 344 344 353 356 343 340 346 354 359 358 358 358 357 357 355 356 358 357 354 350 348 349 348 347 347 348 350 351 352 353 353 353 353 352 352 352 353 353 352 351 351 350 351 351 350 349 349 348 349 349 351 353 353 354 353 351 352 353 354 353 351 349 349 348 348 349 348 348 349 350 352 353 353 355 355 354 355 356 356 356 357 356 356 356 352 353 355 353
318 317 317 319 322 338 356 356 345 343 346 353 356 347 340 339 346 358 359 358 360 359 358 356 355 357 356 355 352 349 349 347 347 346 347 350 351 352 353 352 352 352 352 352 352 353 353 352 350 351 350 351 351 350 349 348 348 349 349 351 352 352 353 352 348 349 351 352 352 351 351 351 349 349 351 351 350 350 351 353 354 354 355 356 356 357 358 357 356 356 354 354 354 352 353 355 354
319 316 315 318 323 335 351 350 342 345 345 343 349 348 341 336 343 358 360 358 360 359 359 356 355 355 355 356 355 351 349 348 346 346 347 349 351 351 352 352 352 351 351 351 352 353 353 352 351 351 351 350 352 351 349 349 348 348 349 350 350 350 351 351 349 349 350 351 353 351 350 350 351 350 352 353 353 352 353 354 354 354 355 356 356 358 358 356 357 356 354 354 354 354 353 353 355
318 315 317 324 331 339 349 345 339 344 339 334 342 345 339 335 341 354 358 357 358 359 358 356 355 354 354 357 355 352 350 348 345 345 347 349 350 351 351 352 351 350 351 351 351 353 353 353 352 351 351 350 352 352 350 349 349 349 350 349 349 349 350 351 350 350 349 350 352 353 352 351 352 353 354 354 353 353 353 353 355 355 356 357 357 357 357 357 357 356 355 355 354 354 353 353 356
317 317 319 328 341 348 349 344 339 340 335 330 339 344 339 333 337 351 358 357 357 358 358 356 356 354 353 355 354 352 351 349 345 345 347 349 349 350 351 351 351 350 350 351 351 352 353 353 352 351 351 351 352 352 351 350 349 349 350 349 348 349 350 350 350 351 350 349 351 355 355 354 353 355 355 355 353 354 354 353 355 357 357 357 357 356 357 357 357 357 355 354 353 353 353 355 356
317 320 318 321 335 343 341 341 340 336 329 330 338 345 341 333 334 349 359 358 358 358 358 356 356 356 354 354 353 352 351 351 347 345 346 348 350 350 350 351 350 350 350 350 350 351 352 352 351 351 352 351 352 352 352 350 350 350 350 349 348 348 349 350 350 350 350 349 352 355 356 355 355 354 355 355 355 356 355 353 355 356 355 356 357 356 357 357 357 357 355 353 354 354 353 355 356
318 320 316 314 325 332 331 335 337 332 327 331 340 343 340 336 337 348 355 356 356 356 357 356 355 356 355 354 353 352 352 351 349 345 344 347 349 350 350 350 350 350 350 350 350 351 352 352 351 352 352 351 352 352 352 351 350 350 350 350 349 348 349 350 350 350 350 350 353 355 356 356 356 355 356 357 356 357 356 353 353 355 355 355 356 356 356 356 357 356 355 354 355 355 355 356 356
317 317 314 314 320 324 328 333 333 329 327 331 342 344 338 335 342 352 354 352 353 353 354 355 355 355 355 354 352 351 353 353 350 347 343 346 349 349 350 350 350 350 349 349 350 351 352 353 352 352 352 351 351 352 352 351 351 351 351 350 349 349 349 349 350 351 352 352 352 354 356 358 357 357 358 358 357 357 357 355 353 355 356 355 356 357 356 355 355 355 354 355 357 356 356 357 357
317 320 318 315 317 319 324 330 327 326 328 332 341 341 333 332 342 353 354 352 352 349 350 353 354 355 354 354 352 352 354 355 352 348 344 345 349 348 350 350 350 349 349 349 350 351 352 353 352 352 352 352 351 351 352 352 351 351 350 350 349 349 349 349 351 352 352 352 353 354 355 356 358 357 357 355 354 354 356 356 355 356 356 355 356 356 357 357 355 355 355 354 357 356 355 357 358
316 320 317 315 318 319 322 325 324 324 329 335 339 336 335 339 345 351 354 354 353 349 348 352 353 354 354 354 353 352 353 355 355 351 345 345 348 348 349 349 348 349 349 348 350 351 351 352 352 351 352 352 351 351 352 352 352 351 350 349 349 349 350 350 351 352 352 352 353 353 353 354 356 356 354 354 353 353 354 356 356 357 356 355 355 355 356 358 356 356 355 353 356 357 355 357 358
317 316 315 318 321 321 320 321 326 326 324 332 336 332 336 341 343 351 357 356 356 353 350 352 353 355 355 354 353 353 353 355 356 355 350 346 346 347 348 348 348 348 349 349 350 350 350 351 351 352 353 352 351 351 351 352 352 351 350 349 349 349 350 351 352 351 352 352 352 353 353 354 354 354 354 354 354 353 353 355 357 357 356 356 356 355 354 356 356 357 356 354 356 358 356 357 358
317 314 316 320 321 322 321 319 324 325 321 329 334 331 333 334 336 351 360 356 357 357 354 355 355 355 355 354 353 352 353 354 355 357 354 348 346 346 347 347 347 348 348 349 349 349 350 351 351 352 353 352 352 351 352 352 351 351 350 349 349 349 349 352 353 352 352 352 352 352 354 354 353 353 354 354 354 353 353 353 355 356 356 356 357 357 355 355 356 357 357 356 356 356 355 356 356
319 317 319 320 315 317 321 319 319 321 321 329 335 335 334 331 335 350 357 357 359 358 357 356 356 356 355 354 353 352 352 353 354 357 357 352 347 345 346 347 347 348 348 348 349 350 350 351 352 352 353 352 352 353 353 352 352 352 352 350 350 350 349 351 352 351 351 352 353 353 353 353 353 353 352 352 353 354 353 353 354 355 356 356 356 357 356 355 355 357 358 357 356 354 354 356 356
319 319 320 320 317 316 319 319 317 318 322 327 333 336 335 335 343 353 356 359 361 359 359 358 356 356 355 354 353 352 352 354 355 356 357 356 352 348 347 347 347 347 348 348 348 349 350 351 352 353 353 353 353 354 353 352 352 353 352 351 350 350 349 350 350 350 351 352 353 353 353 354 353 353 352 352 352 353 353 354 355 356 357 357 357 357 357 356 355 356 357 357 357 354 354 356 356
318 318 317 318 320 318 319 320 319 321 323 325 327 329 333 341 350 354 356 358 358 358 358 357 357 356 356 355 354 352 352 354 355 355 356 357 355 353 349 346 346 346 347 347 347 348 350 351 352 352 352 352 353 353 353 352 353 353 352 351 350 350 349 350 351 350 351 352 352 352 353 354 353 352 353 352 352 352 352 353 355 356 356 356 355 356 356 356 355 355 355 356 356 354 355 356 356
318 319 317 316 319 317 315 317 323 326 327 327 324 322 331 345 349 352 355 354 354 356 355 354 356 356 356 355 354 352 352 352 353 354 356 356 355 355 353 348 347 347 347 347 346 347 349 350 351 352 352 352 352 353 353 352 352 352 352 352 352 351 350 350 352 352 353 353 353 352 352 353 354 353 352 352 352 353 353 353 355 355 355 354 354 354 356 356 356 355 356 357 357 356 355 357 356
Wind_Speed
5 6 7 6 4 1 1 1 1 0 1 3 3 2 2 3 6 7 9 10 8 6 5 9 11 7 5 4 6 6 5 4 2 1 3 5 12 17 12 16 21 17 15 12 12 13 15 16 15 14 11 9 10 10 11 11 11 10 9 9 9 9 9 9 9 9 9 10 10 10 10 11 13 15 15 14 12 12 13 13 12 13 13 13 12 12 14 16 16 17 16 16 16 16 16 15 15
7 8 7 4 1 2 0 1 1 1 1 4 3 1 4 5 7 9 10 8 6 7 8 11 10 6 6 8 8 7 7 5 3 3 5 11 17 13 13 20 19 16 14 12 12 13 14 16 15 13 10 9 9 9 10 10 10 9 9 8 8 8 8 8 9 9 8 9 10 10 10 11 13 15 15 14 13 11 12 13 13 12 12 12 12 12 14 16 17 17 17 16 15 15 16 16 15
9 8 5 1 0 1 0 1 1 1 1 3 3 2 4 6 8 9 9 6 8 10 12 12 8 6 7 10 5 4 5 3 5 7 8 16 15 13 17 19 18 16 14 13 13 14 15 16 15 12 9 9 8 9 9 9 9 9 8 8 8 7 7 7 8 8 8 9 9 9 10 11 12 14 16 15 14 12 11 12 11 12 12 12 12 13 14 16 18 17 16 16 16 16 17 16 15
9 6 3 2 1 1 1 0 1 1 1 3 3 4 5 7 10 9 8 8 10 12 13 11 7 3 3 8 4 3 5 3 7 8 10 14 12 16 19 18 18 16 15 13 13 14 15 15 14 11 10 9 9 9 9 8 8 7 7 7 7 6 6 7 7 7 7 8 8 8 9 10 11 13 15 14 13 13 11 11 10 11 12 11 12 13 15 17 18 17 16 17 17 18 18 17 15
8 4 2 2 1 1 1 0 1 1 1 2 3 5 5 8 11 10 9 9 10 12 13 9 6 3 3 6 2 2 5 5 8 9 12 13 14 19 19 18 18 16 15 13 13 13 13 14 12 11 10 9 9 9 8 8 7 6 7 6 6 6 6 7 7 8 8 8 8 8 9 10 10 12 16 14 12 12 11 10 11 11 12 12 13 13 15 18 17 16 16 17 18 18 17 16 15
5 2 0 1 0 0 1 1 1 2 2 1 2 5 7 9 11 12 12 9 7 9 10 7 7 7 6 6 4 4 5 5 9 10 12 15 17 20 19 19 18 16 15 13 13 12 12 12 11 11 10 9 9 9 8 8 6 6 6 6 6 6 7 7 7 8 9 9 9 8 8 9 10 11 15 14 11 12 11 9 11 12 12 12 13 13 13 16 16 15 16 17 17 17 16 15 15
2 0 0 0 1 0 1 2 2 2 2 2 2 6 9 10 11 13 13 10 8 6 5 6 8 9 6 4 5 5 3 4 9 10 13 17 19 19 18 18 17 16 15 13 13 12 12 11 10 10 9 10 9 9 9 8 6 6 7 6 6 7 8 8 8 8 9 10 9 8 7 8 10 11 15 13 10 12 11 9 11 14 12 11 13 13 13 15 15 15 16 16 16 15 15 15 15
1 1 1 1 2 1 1 2 2 2 3 2 3 7 10 11 12 12 13 10 8 7 6 8 8 7 5 3 4 5 3 5 10 12 15 19 20 19 18 17 17 15 15 14 13 13 11 10 10 9 9 9 9 10 10 8 5 6 8 6 7 8 8 9 9 8 9 9 9 9 7 6 9 12 14 13 11 12 13 9 11 14 14 13 13 13 14 15 15 15 15 16 16 14 14 15 15
1 1 1 1 2 2 1 2 2 2 2 3 4 8 11 11 11 11 11 8 7 8 8 8 4 4 7 6 6 5 5 10 14 16 18 20 20 19 17 17 16 16 15 14 13 13 11 10 9 9 9 9 10 10 11 8 4 6 8 7 8 10 9 10 10 9 9 9 9 10 9 7 7 10 12 14 13 13 13 11 10 14 14 13 14 15 15 16 15 14 15 17 16 15 14 14 14
0 1 1 1 1 2 2 1 2 2 2 3 5 7 8 8 8 9 10 9 9 8 8 6 4 7 9 8 7 5 8 13 18 19 18 19 19 18 17 16 17 16 15 14 14 13 11 10 9 9 9 9 10 12 13 8 5 6 7 8 10 11 10 10 9 9 10 9 9 9 10 10 10 10 11 14 15 15 14 12 11 13 14 13 15 15 15 16 15 13 16 17 15 15 15 14 13
1 1 1 1 2 2 2 2 2 2 3 4 6 6 5 6 7 6 9 10 8 8 9 6 8 12 10 7 5 5 11 16 18 20 20 19 18 17 17 16 17 16 15 14 14 13 11 10 9 9 9 9 10 12 13 9 7 8 8 8 10 11 10 9 9 10 10 10 9 10 10 12 14 12 12 14 15 16 16 13 12 14 15 14 15 15 15 17 16 15 17 16 15 16 15 14 13
1 2 1 1 3 2 3 2 1 2 3 5 6 5 3 5 6 7 10 10 8 8 7 5 8 9 9 7 5 8 14 16 17 20 20 18 17 17 16 16 17 16 15 14 13 12 11 9 9 9 9 10 10 11 12 11 10 9 8 8 9 11 10 10 10 11 11 10 9 10 11 13 15 13 12 15 16 17 17 14 14 16 17 16 16 16 16 18 17 16 17 16 15 15 14 14 12
1 2 2 2 2 3 3 3 0 3 3 4 6 5 4 4 6 7 9 10 8 8 5 5 9 6 7 8 7 10 13 16 17 19 18 17 16 16 15 16 16 15 14 14 12 11 10 9 9 9 10 9 9 10 11 11 11 9 9 8 9 10 11 11 12 12 11 11 11 11 11 13 16 13 13 16 18 20 20 16 15 18 19 17 17 17 17 18 17 17 17 17 16 14 12 13 12
1 1 1 2 2 4 4 2 1 4 4 4 5 5 4 3 5 7 9 11 7 5 6 8 9 6 8 8 7 8 11 18 19 18 17 16 16 15 15 15 15 14 13 12 11 11 10 9 9 9 9 9 9 10 11 11 11 10 10 9 9 9 11 12 12 13 12 11 12 12 13 15 16 14 14 16 19 22 22 20 17 18 19 16 16 17 17 18 17 16 17 17 15 13 13 13 12
1 0 1 2 2 3 3 2 3 5 4 5 5 6 5 4 6 8 7 8 6 5 8 8 4 3 8 9 8 10 15 20 19 17 17 16 16 16 15 15 14 13 12 11 10 10 9 8 8 9 9 8 9 10 11 11 10 11 10 9 8 9 11 12 13 14 14 12 12 13 14 17 17 13 13 16 19 23 23 22 20 19 19 16 16 15 15 17 17 17 17 16 14 13 13 13 12
1 1 1 2 3 3 2 2 3 5 4 6 6 6 8 6 6 6 2 4 8 7 6 5 1 2 8 9 11 17 20 21 19 18 18 17 17 16 15 13 13 12 11 10 9 9 9 8 8 8 8 8 9 10 11 10 9 10 10 9 8 8 11 13 14 15 14 13 13 14 15 17 18 15 13 16 19 22 22 22 21 19 18 17 16 15 14 16 17 16 15 15 15 14 12 11 11
1 1 2 2 3 4 3 3 3 4 5 8 8 5 8 8 5 5 4 7 10 8 5 5 3 5 10 12 17 22 22 21 20 19 18 18 17 15 14 13 12 12 10 9 8 8 8 8 8 8 8 8 9 9 10 9 8 9 10 10 9 8 10 12 13 14 14 13 12 14 16 17 20 18 14 15 19 20 21 21 20 19 18 17 16 16 16 16 17 15 14 15 14 13 11 11 11
1 2 3 3 3 4 5 5 3 5 7 10 8 6 9 11 8 6 7 9 10 9 9 9 10 11 14 19 22 23 22 21 20 19 18 17 16 15 15 13 12 11 10 8 7 7 8 7 7 8 7 8 8 9 10 9 8 8 9 10 9 8 10 12 13 14 15 14 12 13 16 18 20 19 16 16 18 19 20 20 19 18 18 17 16 17 17 17 18 16 16 16 14 12 12 12 12
2 2 3 4 2 3 6 3 5 7 9 12 9 8 10 11 10 7 7 10 10 10 10 11 14 14 17 22 23 22 21 20 19 18 18 16 15 15 15 14 13 12 10 9 7 7 7 6 7 7 7 7 8 9 10 9 8 7 8 9 9 9 11 11 12 14 15 15 14 14 16 17 19 20 18 17 18 18 18 18 18 18 17 16 16 15 16 17 17 16 15 14 13 12 11 10 10
2 2 3 4 2 3 6 2 6 8 10 14 11 9 10 9 8 5 8 11 9 10 10 11 14 16 18 20 21 22 20 19 18 17 17 16 15 15 14 14 13 12 11 9 8 7 7 6 6 7 7 7 8 9 10 9 8 7 7 7 8 9 10 11 11 13 14 14 15 15 15 15 16 18 19 19 18 18 17 16 16 16 15 15 15 13 13 13 13 13 13 12 12 11 10 9 9
1 2 3 4 4 4 6 5 9 11 9 12 12 11 10 8 6 6 11 10 6 7 9 12 16 18 20 19 20 21 19 19 18 16 16 16 15 14 13 13 12 12 11 9 8 7 7 6 6 6 6 6 6 8 10 10 9 7 6 6 8 9 10 10 11 12 12 13 14 15 15 13 14 16 18 18 18 18 16 14 13 13 14 14 14 13 12 11 11 11 11 10 10 10 10 9 9
2 3 5 5 4 5 6 7 11 12 8 10 11 11 10 8 6 8 9 5 4 5 6 12 17 18 20 20 20 19 18 18 17 16 15 15 15 14 13 12 11 11 10 9 8 7 7 6 6 6 5 5 5 6 8 9 9 9 7 6 7 8 9 9 10 11 11 12 12 13 13 13 13 14 15 16 16 16 14 13 12 12 13 13 13 13 12 11 10 9 9 9 9 9 9 8 8
3 3 4 5 2 3 5 8 10 11 10 10 9 8 8 9 8 6 3 1 4 6 6 12 15 17 21 20 19 17 16 16 16 15 14 15 15 14 13 12 12 11 10 9 9 8 7 7 7 6 5 5 5 5 6 8 9 9 9 8 7 7 8 8 9 10 10 11 11 11 11 12 12 12 12 13 13 13 12 11 11 12 12 12 12 12 11 10 9 8 8 8 8 7 7 6 6
5 4 4 2 4 4 5 7 8 9 10 9 8 8 8 9 10 5 2 3 7 9 9 14 16 18 20 18 17 15 15 15 14 13 12 13 13 14 13 11 11 10 10 10 9 8 7 7 7 6 5 5 4 5 5 7 8 9 10 9 9 8 8 8 8 8 8 9 10 10 10 11 11 11 10 10 9 10 9 9 11 12 12 11 11 10 10 9 9 8 7 7 6 6 5 5 5
6 5 3 2 7 6 6 8 8 9 8 8 9 8 6 6 8 5 3 5 10 12 12 15 17 16 16 15 15 14 14 14 13 13 11 10 11 12 11 10 10 9 10 10 9 8 8 7 7 6 5 5 4 4 5 6 7 8 9 10 10 10 9 8 7 6 6 7 8 8 8 10 10 10 9 9 8 8 9 10 11 11 11 11 11 11 10 9 8 7 6 5 4 4 4 4 4
4 5 2 5 7 7 8 8 8 8 6 7 10 9 6 4 6 5 4 7 11 14 14 15 16 15 13 13 14 13 12 13 13 13 11 10 11 12 11 11 11 10 10 9 9 8 8 8 7 6 6 5 4 4 5 6 6 7 7 8 10 9 8 8 7 6 6 5 6 7 7 8 9 9 10 10 10 10 10 11 12 11 11 12 11 11 10 9 7 5 4 4 4 4 4 4 4
0 4 3 7 9 7 7 8 7 7 4 4 9 9 5 2 2 3 6 9 13 15 15 15 15 15 13 12 12 12 13 14 14 13 12 11 11 11 11 11 11 11 10 9 9 8 8 8 7 6 6 5 4 4 4 5 6 6 7 7 9 9 8 8 7 7 6 6 6 6 7 8 8 10 11 12 12 12 11 11 12 11 11 11 11 10 8 6 5 4 4 5 6 6 5 5 5
1 6 8 10 9 7 6 7 5 3 3 2 7 8 4 1 2 4 9 11 14 15 16 15 15 13 12 13 12 11 11 13 14 13 13 13 12 12 12 12 12 12 11 10 9 9 9 8 7 7 6 5 5 5 4 4 5 6 6 6 8 9 8 8 7 7 7 7 7 6 8 9 9 11 12 12 12 12 12 12 11 11 10 10 9 7 6 5 5 5 6 7 8 8 7 6 6
5 9 8 7 7 6 5 6 2 1 3 3 5 6 3 3 3 6 10 11 13 15 15 15 14 12 11 11 10 9 10 12 13 13 13 13 12 12 12 12 13 12 11 11 10 10 9 8 8 7 6 6 5 5 5 4 5 5 6 6 7 8 7 7 7 7 7 7 6 6 8 10 11 11 12 12 12 12 12 11 11 10 9 8 7 6 5 5 5 6 7 7 8 8 7 6 6
7 7 6 6 5 4 5 4 2 3 4 3 2 2 5 6 4 8 11 12 13 13 14 14 12 11 11 10 9 9 11 12 12 12 12 12 12 13 13 12 13 12 11 11 11 11 10 9 8 7 7 6 5 5 5 5 5 5 6 6 6 6 6 7 6 7 7 6 6 6 8 11 12 11 11 11 10 11 11 10 10 8 7 6 5 5 5 5 6 6 6 7 7 7 6 6 7
7 5 4 4 2 2 1 3 5 3 3 3 2 1 3 5 6 7 10 13 14 13 13 14 12 11 11 10 10 10 11 12 12 12 12 12 12 12 12 13 13 12 12 12 12 12 11 10 9 8 8 7 6 6 5 5 5 5 5 5 6 5 6 6 6 6 6 6 7 8 10 12 12 11 10 9 9 9 9 8 7 6 5 5 5 5 5 5 6 6 6 6 5 6 6 6 6
4 4 3 2 1 2 2 4 5 2 4 3 1 1 1 5 7 6 10 14 13 13 14 14 13 12 12 11 10 9 10 12 13 12 13 13 13 12 13 14 14 13 13 13 13 12 11 10 10 9 8 8 7 6 5 5 5 5 5 5 5 5 5 5 5 5 5 6 8 10 10 11 10 9 8 8 7 7 7 6 6 5 5 4 4 4 5 5 5 5 5 5 5 5 5 5 5
3 2 2 4 4 3 2 3 4 3 5 5 2 1 1 3 7 6 8 14 14 12 14 15 13 12 12 10 10 9 9 11 12 13 13 13 13 13 13 14 14 14 14 14 14 14 12 11 11 9 9 9 7 7 6 5 5 4 4 4 4 4 5 5 5 5 5 6 9 9 10 9 8 7 7 6 6 6 6 6 5 5 4 4 4 4 4 3 4 4 5 5 4 4 4 4 4
4 3 1 4 5 5 3 3 5 6 6 7 5 3 1 2 8 8 7 11 14 13 14 15 13 11 11 10 9 10 9 10 11 13 15 14 14 13 13 13 14 14 14 14 14 14 13 11 11 10 10 9 8 7 6 5 5 4 4 4 4 4 4 5 5 5 5 6 8 8 8 8 7 6 6 5 6 6 7 7 6 5 5 4 3 3 2 3 4 4 5 5 4 4 3 4 4
5 5 2 4 5 5 4 3 7 10 7 8 9 5 1 3 8 9 8 9 12 14 13 13 13 12 11 10 10 10 10 10 11 13 15 15 14 14 13 13 14 14 13 14 14 14 14 12 12 11 10 10 8 7 6 6 5 4 4 4 4 4 4 5 6 5 5 6 7 8 8 8 7 7 7 6 7 7 8 8 7 6 5 4 2 2 2 3 4 5 5 4 5 4 4 4 5
4 6 3 4 4 3 4 4 8 12 9 8 10 6 2 5 8 10 10 9 9 12 12 11 12 12 10 9 9 10 10 11 12 14 15 14 14 14 14 13 13 13 13 14 15 15 15 14 13 11 10 10 9 7 7 7 6 6 5 5 5 5 5 6 6 6 5 5 6 8 8 8 8 7 8 8 8 8 8 8 8 7 5 3 2 2 2 3 3 4 5 5 5 4 4 5 6
4 5 4 4 3 2 3 4 9 13 8 7 10 8 5 6 8 11 11 10 8 9 11 12 12 13 12 11 10 11 11 11 12 14 14 14 14 14 14 13 13 13 13 15 15 15 16 15 14 13 11 10 10 9 9 9 8 8 7 7 6 6 7 7 6 6 5 5 7 8 8 8 8 8 8 8 8 9 8 8 8 7 5 3 2 2 2 2 3 3 4 5 5 5 5 6 7
3 3 3 3 3 2 1 3 11 13 7 6 9 9 8 7 8 10 11 12 11 10 10 12 14 15 13 12 12 12 10 9 11 12 14 15 14 15 14 14 15 15 15 16 16 16 16 16 15 15 13 12 11 11 11 11 11 10 8 7 6 5 7 7 5 6 5 6 7 8 8 8 7 7 8 8 8 9 9 8 8 6 5 4 3 2 2 2 2 3 4 4 5 6 5 5 6
2 1 2 2 2 2 2 2 9 12 6 5 10 9 8 7 7 9 11 12 11 9 9 9 13 14 13 12 12 12 11 10 11 12 14 15 15 15 15 14 16 16 15 16 16 16 17 16 16 17 16 14 13 13 13 13 12 11 9 8 7 5 6 7 6 6 5 6 8 8 8 8 7 7 8 8 8 9 9 9 7 5 4 3 2 2 2 2 2 3 4 4 4 4 5 5 6
2 1 1 2 2 2 2 2 7 9 2 3 10 8 4 6 6 7 11 11 9 9 9 7 8 11 12 13 12 12 13 11 11 12 14 15 16 16 16 15 15 15 15 16 17 17 17 18 19 19 17 15 14 14 14 13 12 11 9 8 7 6 6 7 6 5 5 6 8 9 8 7 7 7 8 8 8 9 9 8 6 5 4 3 2 1 1 1 1 2 3 4 4 3 4 5 5
2 2 3 1 2 1 1 4 7 6 1 2 8 5 3 7 8 8 8 9 9 11 11 9 7 7 9 11 12 12 13 12 12 13 13 15 16 16 17 16 16 16 17 18 18 18 18 19 21 20 18 16 15 15 15 14 13 12 11 9 7 6 6 6 6 5 6 7 7 8 8 7 7 7 8 8 9 10 9 7 6 6 4 3 2 0 1 1 1 2 2 4 4 4 4 4 4
2 4 6 4 3 2 5 9 8 4 3 5 8 5 3 7 10 11 8 9 11 11 13 13 9 7 8 10 13 13 13 12 12 13 13 15 17 17 17 16 17 17 17 18 18 18 19 21 22 20 19 17 16 16 17 16 15 14 13 10 8 7 5 6 6 5 6 6 6 7 7 7 8 8 8 8 9 10 9 7 7 6 5 3 2 1 1 1 1 2 2 2 3 3 4 4 3
3 3 5 6 5 5 9 11 6 2 1 5 8 5 1 4 9 12 11 12 14 13 15 17 11 8 9 10 12 13 13 13 12 13 14 16 17 17 17 18 18 18 17 18 17 17 19 22 23 22 20 19 18 18 19 19 17 16 15 12 9 8 6 7 8 7 6 6 6 7 7 7 8 8 8 8 9 9 8 7 7 6 5 4 2 1 1 1 1 1 1 2 1 2 4 3 3
2 1 3 8 8 7 10 9 5 1 2 4 6 5 3 2 4 9 12 12 14 15 17 18 15 12 11 11 11 12 14 13 12 13 14 16 18 18 19 19 20 19 17 17 17 17 20 23 24 23 22 21 20 20 21 21 19 18 17 14 11 10 9 9 10 9 8 7 7 7 7 8 9 9 9 9 10 10 8 7 6 6 5 4 4 3 2 2 1 1 0 1 1 1 3 3 2
1 2 2 5 7 7 9 7 3 2 2 3 6 4 4 3 2 5 10 11 13 16 19 19 19 17 14 11 11 12 12 13 13 13 14 16 18 19 20 21 21 19 17 19 20 19 21 24 24 24 23 23 22 21 22 22 21 19 18 15 14 13 11 11 11 11 10 9 8 8 8 8 9 9 9 9 9 9 9 8 7 6 5 5 4 4 3 2 2 2 1 0 0 0 2 2 2
2 5 3 3 3 4 6 5 2 3 3 4 7 8 5 3 3 5 8 10 12 15 16 18 19 19 16 12 12 13 11 11 12 13 15 17 19 20 21 20 20 20 18 20 20 18 20 22 24 24 24 24 24 23 23 23 22 20 18 17 16 14 13 13 13 13 13 12 10 9 8 9 9 10 9 9 9 9 9 9 8 6 6 5 5 4 3 3 3 2 1 1 1 1 1 1 1
4 6 3 4 4 3 3 2 1 3 4 3 7 11 6 3 3 6 7 6 7 10 12 15 18 19 17 14 13 14 12 10 11 12 15 18 19 20 20 19 20 19 17 18 18 17 19 22 24 24 25 25 25 24 24 24 23 21 20 19 17 15 14 14 14 13 14 13 13 11 10 10 10 10 10 10 10 9 8 8 7 6 6 6 5 4 4 3 3 3 2 2 1 1 0 1 1
2 3 4 3 3 3 3 2 2 4 3 1 4 11 9 6 2 4 6 4 3 6 10 14 17 19 17 15 14 14 12 11 10 10 12 14 16 17 17 18 18 18 17 18 18 18 19 22 24 24 25 26 26 25 25 25 24 23 21 19 19 17 15 13 13 14 14 15 14 12 12 11 10 11 11 10 10 10 9 9 8 7 6 6 6 6 5 5 4 3 2 2 2 1 2 3 3
4 3 4 5 4 3 4 3 3 5 3 2 2 9 7 6 2 1 3 5 5 6 8 12 16 18 17 16 15 14 12 11 11 10 10 11 13 15 17 17 17 17 18 19 19 18 19 22 25 26 26 27 27 26 26 26 26 25 22 21 20 19 16 14 14 15 15 16 15 14 13 12 11 11 11 11 10 10 10 10 9 8 8 7 7 7 7 6 5 4 3 2 2 2 3 4 4
7 6 6 6 5 5 6 4 2 4 4 0 3 7 4 4 1 2 3 6 7 7 8 10 14 17 17 16 16 13 11 11 10 10 11 11 13 16 17 17 18 19 20 20 20 19 20 21 25 26 27 28 28 27 27 27 27 26 24 23 22 20 18 16 16 16 16 16 16 15 14 13 12 12 12 12 11 10 10 10 10 9 8 8 8 7 7 7 6 5 3 3 3 4 4 4 4
7 6 6 6 4 4 4 4 4 4 3 3 6 6 3 2 1 3 5 5 6 7 8 8 10 13 14 14 15 14 11 9 8 10 11 12 14 16 16 17 19 20 21 20 20 20 21 21 25 28 28 29 29 28 28 28 28 27 26 25 23 21 20 18 17 17 17 17 16 16 16 14 13 12 12 12 11 11 12 11 11 10 8 8 8 7 7 6 6 5 4 3 4 4 4 4 4
4 4 6 6 4 3 1 2 3 2 1 3 5 4 2 0 1 2 3 3 3 2 7 8 8 10 12 12 13 13 11 9 7 8 10 11 14 15 16 18 19 19 20 20 20 21 22 23 26 29 28 30 30 29 29 29 29 29 27 27 25 23 21 19 18 18 17 17 17 17 16 15 14 13 12 11 10 11 13 12 11 9 8 7 7 7 7 6 6 5 5 4 4 4 4 4 5
3 4 6 3 1 2 1 1 2 0 3 3 3 4 1 1 2 1 3 4 5 2 4 7 8 10 12 12 12 13 12 10 7 6 6 8 11 13 15 18 18 19 20 20 21 23 25 25 27 28 27 28 30 31 30 30 30 29 28 28 26 24 22 20 18 17 17 18 18 17 16 15 14 13 12 10 9 10 12 12 11 9 8 7 6 6 7 7 7 6 5 4 4 4 5 5 5
4 4 5 4 1 2 1 2 3 3 5 3 3 6 3 1 2 1 3 4 5 3 2 4 6 9 12 13 13 13 13 12 9 7 6 7 9 11 15 17 17 19 20 21 22 24 25 26 26 26 27 28 31 30 30 30 30 29 29 28 27 26 24 21 18 17 17 17 18 17 16 15 14 13 12 11 10 9 10 11 10 9 7 7 7 6 7 8 8 7 6 5 5 5 5 5 5
1 1 6 5 3 4 3 3 4 5 4 3 3 4 4 4 3 2 3 3 4 2 2 3 6 9 10 12 14 14 13 12 10 9 7 7 9 12 15 15 15 17 17 17 18 19 20 21 22 23 25 28 28 27 27 30 31 28 28 28 27 27 26 23 20 18 17 16 16 16 16 14 13 12 11 10 10 9 10 9 9 8 7 6 7 7 7 8 8 8 7 6 6 6 6 6 5
0 1 4 2 2 4 4 3 3 3 4 3 4 3 3 4 1 3 3 2 2 3 4 3 5 7 8 10 12 12 12 10 9 9 7 8 10 11 12 12 12 16 16 15 16 17 17 18 19 20 21 23 23 22 24 29 28 26 27 28 27 27 27 25 23 20 17 16 15 15 15 13 12 12 11 10 9 9 9 9 8 7 7 6 6 7 7 8 8 8 7 7 6 7 7 7 6
3 5 6 4 1 1 2 2 1 2 3 4 4 4 2 1 2 3 4 3 3 5 6 4 4 6 7 9 10 10 11 10 8 8 8 9 9 9 10 12 12 13 13 13 15 16 16 17 18 20 22 23 23 22 23 25 25 24 26 27 26 25 26 26 24 21 18 16 16 15 14 13 12 12 11 10 9 9 9 9 8 8 8 7 7 7 7 8 9 9 9 8 8 8 8 8 7
1 2 4 4 2 3 5 5 1 1 2 2 4 5 2 3 2 3 4 4 4 7 8 6 5 7 7 8 9 10 11 10 10 8 7 8 8 7 8 10 10 9 9 11 13 13 14 15 16 17 19 20 21 20 21 24 24 24 25 24 23 23 24 25 23 20 19 17 16 16 15 13 12 12 11 10 10 9 9 8 9 9 8 8 8 7 8 9 10 11 10 9 9 9 9 9 9
Wind_Direction
128 135 130 138 118 71 145 268 279 109 227 107 97 107 91 101 126 131 131 133 129 139 132 127 137 128 118 126 127 88 70 132 115 106 111 101 138 144 144 148 151 144 140 136 132 131 123 121 118 113 111 112 108 104 104 103 102 98 96 95 95 95 96 97 96 96 98 102 107 113 119 123 121 120 119 117 118 115 109 111 113 112 112 115 118 119 116 113 113 112 109 110 111 111 109 111 112
140 136 134 136 110 298 175 272 297 95 162 119 101 86 113 129 140 140 142 144 129 138 139 134 129 98 94 106 119 113 78 39 34 81 90 127 136 139 148 150 149 143 139 135 134 130 125 123 117 112 111 111 104 101 102 100 99 98 97 94 92 92 95 100 101 103 105 106 110 117 121 121 119 122 123 122 119 115 111 110 109 109 112 116 117 115 113 111 111 109 106 105 108 110 107 110 113
135 132 132 155 229 256 217 260 314 72 144 125 103 100 137 141 143 142 140 129 117 134 139 135 117 87 118 122 116 117 99 41 101 110 118 138 140 146 152 151 147 141 138 137 135 130 128 122 114 115 117 113 106 104 100 98 98 97 97 96 97 100 108 111 110 111 110 107 110 113 115 118 118 122 124 126 123 116 115 111 109 111 111 112 111 114 114 113 113 109 103 101 104 108 107 110 111
131 127 105 306 260 222 308 325 25 24 127 118 112 124 150 143 139 133 127 121 126 140 141 140 117 62 130 125 107 83 100 102 123 121 136 149 146 147 151 151 146 140 140 138 135 130 124 116 114 121 120 113 110 107 102 100 98 100 106 109 113 117 119 116 113 115 113 109 111 109 107 114 120 122 120 127 126 117 121 119 114 112 110 111 112 118 119 117 117 111 104 101 103 107 109 110 106
124 110 64 320 301 6 336 37 15 338 91 93 123 134 146 140 136 128 126 126 136 148 147 146 118 96 84 90 84 101 110 116 135 138 140 148 144 146 150 150 144 140 140 135 133 127 119 119 122 123 118 116 113 111 108 102 103 115 120 120 121 118 116 115 114 113 113 110 113 115 113 114 118 119 114 122 131 122 126 129 122 113 115 122 120 121 122 122 120 111 107 104 104 108 109 106 101
120 113 83 309 16 24 300 56 25 16 44 42 115 133 142 141 136 131 132 124 128 143 146 142 119 123 100 70 53 90 113 116 143 151 144 146 146 147 149 148 144 141 140 136 132 124 124 126 123 121 118 118 115 113 110 105 113 124 116 118 123 116 115 113 107 103 104 104 103 108 116 114 110 111 108 117 134 125 126 135 126 117 121 127 125 123 120 122 121 111 106 106 106 108 107 104 102
117 147 265 220 115 232 356 41 36 36 40 25 91 132 141 139 136 136 139 133 128 132 137 136 125 117 99 97 86 81 96 113 142 151 146 145 145 147 148 147 144 142 142 138 134 127 128 125 120 120 119 121 117 113 107 106 119 118 105 111 120 109 104 101 97 95 97 101 100 99 106 112 108 104 104 116 137 128 124 134 124 118 125 129 125 125 121 121 122 114 108 106 105 106 106 105 103
69 352 328 34 75 26 25 37 43 55 56 54 91 132 141 139 141 144 148 147 145 145 140 145 140 109 91 129 103 79 97 122 136 139 142 144 145 148 148 147 143 144 143 138 135 130 127 124 124 123 122 120 114 109 101 104 108 98 95 100 102 91 88 91 90 90 93 101 106 104 106 111 109 107 108 122 138 127 120 126 122 122 132 133 126 125 123 122 122 117 111 107 105 105 104 102 101
42 337 294 44 49 40 38 30 54 61 59 92 113 130 138 140 145 148 151 146 140 141 140 151 166 118 110 112 102 98 114 126 131 133 142 145 147 149 148 149 145 146 144 141 138 131 130 129 128 125 122 116 113 107 101 103 100 91 93 96 89 83 86 87 88 90 91 95 103 107 111 114 109 109 115 125 132 122 115 119 122 124 130 129 123 122 123 122 121 117 111 109 109 109 106 102 101
353 358 342 26 42 44 41 23 49 60 68 104 121 129 136 139 143 148 150 144 137 132 130 125 102 121 125 107 97 104 122 132 133 137 146 146 147 149 149 150 146 147 146 144 139 133 133 132 128 123 119 113 111 105 100 100 92 87 89 89 82 82 84 83 86 89 88 87 92 99 106 111 111 112 116 121 124 120 117 120 123 120 119 120 119 118 119 120 119 115 111 112 111 110 109 105 101
318 30 331 31 41 26 17 15 36 64 92 120 123 120 135 135 127 136 140 135 131 126 132 127 109 122 121 104 93 107 126 136 138 142 148 147 148 149 149 150 148 147 146 144 140 135 134 131 125 119 115 109 104 101 104 105 98 87 81 81 76 74 73 77 83 84 88 89 91 95 99 107 109 115 118 114 117 117 115 120 124 118 114 114 113 111 111 113 116 117 114 115 111 108 106 104 101
341 29 332 30 35 0 338 335 25 96 124 145 138 126 138 137 126 139 139 131 130 129 137 146 136 132 117 108 105 122 132 137 141 145 148 147 148 149 148 149 149 148 145 143 139 135 133 131 123 117 112 103 95 96 105 109 106 97 88 80 72 71 68 77 84 84 88 91 94 96 97 102 104 112 117 113 116 115 113 121 124 117 112 111 110 108 107 108 114 117 114 113 109 104 104 106 104
351 28 351 12 11 317 310 306 102 137 153 152 143 136 141 132 134 148 137 128 131 134 129 134 144 131 107 111 115 131 139 140 144 146 147 147 146 148 146 148 149 147 145 140 136 132 132 129 122 117 108 98 93 94 101 106 105 100 93 82 73 73 73 80 85 84 86 88 93 96 96 95 98 107 113 114 117 114 113 119 119 113 108 109 110 108 108 108 112 115 113 112 105 99 102 109 108
340 36 350 347 324 305 296 282 182 172 161 134 135 137 134 94 128 146 135 127 121 120 114 124 138 120 113 124 130 144 147 146 148 147 147 145 144 146 145 147 147 145 144 139 133 129 130 125 119 117 108 100 99 96 98 101 103 101 94 86 77 72 75 83 85 83 85 88 91 93 93 89 94 104 109 111 112 111 113 117 116 110 107 108 108 107 108 107 109 112 111 110 104 98 99 103 105
293 42 326 315 318 312 286 265 217 192 158 137 145 131 104 76 128 137 131 127 108 109 119 125 138 128 146 153 151 153 150 150 149 147 145 141 141 143 144 145 145 144 141 136 130 128 130 125 121 118 108 103 102 101 99 99 106 106 100 95 87 75 76 83 83 82 84 88 91 92 90 89 93 98 102 103 104 107 112 118 117 112 111 110 106 103 106 107 110 113 110 108 103 96 92 94 100
243 323 316 304 311 304 277 260 214 189 160 145 148 126 103 93 120 118 85 107 117 129 128 129 156 137 151 148 142 145 148 150 149 146 142 138 139 140 142 144 143 142 138 132 129 130 131 128 124 118 110 106 106 106 104 104 108 110 107 101 93 82 80 82 83 85 85 86 90 93 90 91 93 94 95 97 100 106 112 115 115 114 115 113 107 104 105 106 109 109 105 102 97 95 94 96 100
215 284 305 318 307 295 275 249 211 164 148 147 150 143 123 119 106 94 95 107 120 126 96 88 85 111 125 125 132 140 146 147 147 146 142 140 141 142 144 145 146 143 138 134 134 136 133 130 127 119 114 111 110 110 109 108 108 110 109 103 96 87 83 81 81 84 85 85 89 91 91 92 96 97 95 95 97 103 110 112 113 116 117 114 110 109 109 107 106 107 107 104 104 108 110 107 103
235 283 313 325 312 302 298 269 190 130 141 148 152 146 135 136 127 119 120 109 110 105 91 88 87 97 109 119 131 139 145 147 148 150 148 147 147 149 150 151 152 147 144 140 138 141 135 133 130 121 116 113 112 110 109 113 114 113 109 106 100 89 81 78 79 81 82 86 89 88 89 91 95 99 98 97 96 100 107 111 113 114 114 115 114 113 113 112 115 119 120 118 121 120 113 104 101
230 281 312 330 323 326 332 287 165 141 145 141 141 139 138 139 134 143 143 129 124 110 105 107 103 109 117 124 136 142 146 149 152 155 153 153 155 156 155 155 156 152 151 147 143 146 140 138 134 127 122 116 114 111 111 116 119 116 107 104 98 89 81 77 79 82 83 89 93 90 91 92 94 98 100 99 100 102 106 111 113 111 113 116 115 115 115 117 121 122 120 118 118 113 108 102 100
223 257 297 350 345 341 11 41 142 125 132 134 133 132 134 136 135 157 147 138 143 133 132 130 124 132 134 134 142 146 149 152 154 157 157 157 158 158 157 159 160 158 156 149 146 151 149 147 141 135 129 122 118 116 117 118 117 112 103 99 97 92 82 78 79 82 84 88 92 92 92 93 94 97 100 102 103 104 106 108 109 108 110 113 113 116 117 117 116 112 109 105 103 100 97 96 96
187 224 284 351 352 354 37 86 116 110 117 127 130 129 129 132 133 148 142 143 160 159 154 145 142 144 142 142 147 150 152 154 157 160 161 160 160 159 160 161 161 160 157 150 147 153 157 154 149 140 133 129 125 123 124 121 117 110 102 94 94 94 87 83 84 86 88 89 91 92 92 92 93 97 100 103 105 106 108 109 110 112 116 120 123 126 126 123 115 108 105 98 92 89 88 87 88
218 238 271 299 321 6 63 106 114 114 111 113 128 134 134 132 128 146 148 153 158 158 162 146 146 147 145 145 148 152 154 156 161 163 162 160 159 159 160 161 160 161 159 154 150 154 161 161 157 146 139 138 133 131 126 124 121 116 112 102 94 93 88 84 86 91 94 95 92 92 94 93 94 97 99 102 108 112 116 118 119 123 127 131 135 135 133 130 122 114 108 99 89 84 82 80 79
246 251 285 293 301 39 97 121 120 126 123 121 132 130 134 132 125 141 138 52 107 124 144 140 142 145 142 144 148 154 156 159 161 162 163 159 158 158 160 161 162 163 160 157 154 155 163 166 163 154 151 147 143 143 133 129 127 124 125 121 109 100 90 79 79 86 91 94 93 94 97 99 97 97 99 104 109 113 116 118 119 123 128 132 134 132 130 128 123 118 109 96 85 79 73 67 65
237 262 305 330 110 101 115 124 126 127 122 124 129 124 132 134 132 136 66 75 119 125 136 135 137 143 140 143 151 155 156 160 160 161 163 162 160 157 158 160 159 161 159 160 160 159 165 168 165 163 166 161 155 153 145 139 133 129 131 131 125 116 105 89 80 81 83 85 88 94 99 103 104 102 102 102 103 105 105 108 113 120 124 126 127 124 122 120 116 109 98 85 74 67 58 52 46
223 256 287 134 110 100 112 124 128 117 111 122 123 117 114 122 131 120 82 122 133 132 139 137 139 146 144 146 151 154 156 157 157 159 162 161 159 155 156 159 161 164 164 165 165 163 167 170 169 169 175 174 167 160 155 148 141 137 132 133 134 127 117 106 98 92 84 78 80 87 96 104 106 105 104 100 100 100 100 105 110 115 117 115 116 117 116 112 106 97 83 70 52 34 28 23 21
209 243 212 132 112 108 122 128 129 117 118 133 123 115 105 118 129 106 106 143 138 137 141 141 147 152 151 149 152 157 157 157 159 161 163 161 160 160 161 164 167 172 172 171 171 171 173 175 174 172 176 180 176 166 160 155 151 146 134 134 136 131 124 117 115 112 103 93 89 91 96 101 104 106 105 104 103 103 103 107 109 109 110 111 112 113 112 105 95 79 56 36 17 9 7 4 9
266 226 139 106 107 112 127 128 125 117 115 132 127 122 110 119 185 134 135 149 143 141 143 146 153 156 156 152 155 162 161 160 160 161 162 163 168 169 168 169 172 175 176 178 180 180 180 180 177 174 177 181 181 174 165 160 157 151 142 139 136 134 132 125 125 126 123 119 117 114 108 103 103 108 107 105 105 105 106 107 108 107 107 110 112 109 103 91 75 51 38 30 26 33 31 21 20
235 160 104 88 100 104 118 123 114 107 102 102 117 114 95 88 242 148 143 156 151 145 147 153 157 159 160 156 157 165 166 163 162 165 170 172 177 177 175 176 173 174 180 185 187 186 184 183 178 176 179 183 181 178 172 166 165 159 151 147 137 136 136 129 129 133 132 128 127 127 120 112 110 111 109 106 106 106 108 108 108 109 111 113 111 104 93 78 60 48 49 46 44 46 44 33 25
184 152 111 99 113 101 84 91 76 226 146 107 104 110 139 174 159 132 144 158 154 148 150 158 160 160 163 162 161 168 170 169 169 175 178 179 181 181 182 181 176 175 181 187 189 189 184 183 182 178 182 185 182 178 178 174 173 170 162 157 143 137 137 132 133 137 134 130 130 132 128 122 118 115 112 110 109 110 111 113 112 113 116 115 111 102 90 72 57 52 50 47 44 43 43 33 24
165 149 122 126 130 97 62 81 180 202 138 82 51 165 183 177 149 136 153 160 154 151 156 162 164 162 167 169 167 171 176 177 180 183 182 181 182 184 185 183 182 178 177 183 187 187 184 185 186 182 185 185 181 183 184 180 181 181 174 169 155 141 138 135 137 141 134 132 134 137 135 129 125 120 118 116 115 117 118 119 120 120 121 117 113 106 88 65 53 50 45 41 36 33 33 26 26
154 139 138 145 148 145 120 175 181 171 129 73 7 282 190 169 152 144 159 165 160 156 163 169 167 165 170 174 176 176 181 185 188 188 186 184 183 186 187 184 186 183 178 180 184 186 186 190 192 187 190 188 183 188 189 188 189 189 184 177 166 151 142 141 142 140 136 139 137 137 138 134 131 127 125 124 124 127 127 128 130 128 127 121 115 103 77 57 50 44 40 37 28 24 23 19 25
155 151 167 180 146 163 227 203 195 194 140 125 61 305 200 161 154 147 163 171 169 163 168 175 171 170 172 175 180 179 182 189 192 192 190 189 186 187 187 185 186 186 183 180 181 185 187 194 198 192 193 190 185 188 189 193 195 195 194 187 178 163 152 150 148 144 142 145 140 140 141 138 137 136 133 133 134 140 142 140 142 139 133 127 118 95 65 51 49 40 35 37 26 21 22 22 26
178 236 183 169 157 165 199 189 220 232 143 146 208 247 47 149 153 142 163 177 177 173 174 179 175 173 176 176 180 180 181 188 194 196 193 192 191 189 187 186 186 186 186 181 181 185 187 193 198 195 194 193 189 188 189 191 194 199 199 194 189 179 170 163 157 153 152 154 152 150 149 149 149 150 147 145 147 155 158 157 155 151 143 132 116 86 60 52 57 48 36 34 27 22 27 33 30
183 220 170 155 163 168 160 154 207 213 169 164 201 243 17 131 159 148 157 176 182 184 180 182 181 176 179 180 181 182 183 189 195 197 196 194 194 192 189 187 185 185 187 186 186 187 186 189 195 197 199 197 190 186 189 189 192 197 198 200 197 193 189 181 171 164 163 167 171 170 166 165 169 170 169 164 161 163 165 166 163 158 151 137 113 81 57 50 63 62 43 33 37 38 33 31 27
176 184 171 142 162 181 179 153 171 187 185 172 189 224 281 143 166 159 157 170 184 191 186 185 187 183 182 184 186 186 187 194 198 198 198 196 193 191 189 187 185 185 186 187 188 189 188 189 194 201 202 198 191 185 187 188 190 194 196 201 203 203 200 194 188 182 180 179 183 186 180 175 177 178 175 169 165 164 166 167 164 160 154 142 116 82 55 45 58 61 48 45 49 48 40 27 21
155 168 169 151 164 183 184 159 158 173 178 182 193 202 180 171 176 169 162 165 181 191 189 189 192 191 189 188 190 191 193 198 200 199 200 197 193 189 187 188 187 186 184 184 187 191 192 191 194 200 199 196 190 184 188 190 192 196 198 202 206 210 208 204 200 192 189 185 182 185 182 175 172 172 169 166 163 163 167 169 166 161 156 150 129 93 66 56 60 53 48 57 57 48 40 31 24
117 151 172 188 188 140 165 168 166 177 181 188 194 184 173 179 179 176 165 161 176 189 188 189 194 197 196 194 193 194 198 200 198 199 201 199 195 190 186 187 187 185 183 184 188 192 194 193 194 196 195 193 189 186 190 191 192 192 196 202 205 212 214 209 201 192 184 179 172 171 172 169 166 166 164 164 163 166 171 172 168 163 158 158 148 121 91 73 68 53 44 52 55 47 41 37 31
86 133 165 189 192 117 88 166 168 184 199 187 186 188 189 179 173 178 169 168 184 191 186 188 195 199 199 197 196 196 199 200 196 197 200 201 197 191 187 186 187 188 185 187 190 192 195 194 195 199 201 201 198 196 196 197 199 197 197 203 203 207 212 207 199 191 177 167 164 162 166 168 167 168 165 164 165 168 172 172 170 168 165 167 163 142 103 75 59 41 34 41 48 47 47 43 35
113 138 157 152 153 119 66 97 166 183 211 196 187 197 199 183 176 183 183 184 190 193 189 189 194 196 197 197 196 196 196 196 196 197 199 200 197 191 189 189 191 191 188 188 191 193 195 194 197 204 206 206 207 206 204 204 205 202 201 205 201 200 207 205 198 188 171 161 164 164 167 171 173 173 171 168 167 169 171 171 174 177 176 177 171 146 91 66 40 28 27 37 41 44 52 45 36
186 202 196 146 141 155 86 102 168 175 215 220 194 198 200 188 188 193 200 198 190 192 193 191 196 198 198 199 199 198 197 196 196 199 199 198 195 191 191 192 191 190 189 188 191 192 194 198 203 207 206 203 205 206 204 206 205 199 198 203 201 201 208 205 198 186 173 166 168 171 174 177 179 178 177 175 172 172 172 173 182 188 190 196 191 154 59 44 27 20 22 34 33 35 45 42 38
203 211 226 177 141 197 83 127 155 160 199 219 186 192 214 204 206 204 201 203 197 191 191 194 197 201 200 200 204 204 201 200 198 200 199 195 193 192 193 192 188 190 191 191 191 192 194 201 207 209 207 202 202 204 203 203 202 198 198 201 202 204 207 204 196 188 182 176 174 178 180 180 180 180 180 180 177 175 175 179 191 195 200 208 205 263 351 350 8 10 16 32 30 29 34 33 40
216 210 223 220 177 140 119 138 147 159 213 198 185 208 222 198 213 213 192 196 204 194 196 201 192 193 202 199 203 206 205 204 202 201 198 195 194 194 193 190 190 194 195 195 193 192 194 201 208 210 208 203 200 203 202 201 200 199 200 199 197 197 197 199 193 186 186 183 181 183 184 181 179 179 181 181 180 179 181 185 190 194 200 207 212 240 309 311 333 358 16 35 31 33 36 33 42
234 208 202 197 191 155 142 154 165 180 200 181 197 235 258 179 211 216 197 195 204 200 205 208 196 192 205 202 200 202 205 205 205 204 199 196 195 194 193 192 195 199 196 195 193 190 194 202 208 210 211 206 200 200 201 200 200 200 202 200 199 199 200 203 196 189 191 191 190 189 189 185 180 178 181 185 185 186 189 190 189 192 196 204 216 222 245 299 304 321 22 41 41 43 44 36 38
222 69 170 180 191 178 161 172 194 192 99 150 198 242 282 240 207 202 198 198 205 207 211 211 202 198 203 205 201 199 203 203 202 206 201 198 195 193 194 195 199 200 194 191 191 190 196 205 209 209 211 208 201 200 199 199 200 201 204 207 209 209 211 212 204 201 204 201 199 197 196 195 188 185 187 190 192 195 198 198 198 199 199 210 218 223 236 248 245 223 175 37 52 56 51 45 34
195 95 123 169 196 195 173 184 208 182 182 188 195 212 252 250 126 168 193 201 212 213 213 213 207 202 200 203 206 201 201 198 199 204 202 199 197 194 196 197 199 198 192 192 194 194 198 206 209 208 210 209 204 201 199 199 200 202 207 211 214 215 217 220 217 217 218 214 213 207 202 203 200 198 198 197 198 201 205 207 211 210 209 218 221 223 229 219 204 197 207 308 199 94 54 54 41
141 128 101 99 161 188 176 198 199 164 234 241 190 193 234 249 150 161 187 207 223 218 214 215 212 207 199 195 204 204 199 195 198 204 203 201 199 198 198 197 197 196 194 194 194 193 195 202 207 208 209 208 205 202 201 201 201 205 211 213 214 217 220 222 222 223 224 223 223 221 212 211 211 209 209 208 208 209 212 213 216 217 216 221 222 221 223 211 198 191 210 246 217 184 68 53 34
124 141 136 92 102 134 153 190 187 183 243 252 183 189 221 261 163 168 186 205 224 216 212 212 212 212 203 192 198 203 200 195 195 202 204 202 201 200 198 195 193 193 192 191 190 189 192 199 205 207 208 207 206 204 204 205 204 207 214 215 215 218 222 223 220 220 223 224 225 226 224 219 217 217 217 219 219 218 220 219 218 221 220 220 219 218 217 213 205 201 208 216 218 229 290 317 298
126 168 177 141 117 128 139 153 191 217 232 327 182 185 203 243 213 163 194 201 212 214 209 204 205 210 206 195 193 199 201 193 188 195 200 200 199 196 195 193 188 187 186 187 189 189 190 199 205 205 206 207 206 205 206 207 208 210 214 216 217 219 222 223 221 220 222 223 223 225 228 226 222 221 220 223 224 223 224 224 224 227 224 220 220 218 214 211 207 206 213 218 229 258 284 291 282
202 206 192 187 174 162 180 182 195 221 225 16 191 181 195 247 257 94 220 232 240 231 217 206 202 203 202 194 189 193 196 191 186 190 193 194 194 192 193 190 182 182 187 188 190 189 189 198 205 205 207 207 206 207 207 209 211 213 214 215 216 219 222 223 223 222 221 221 221 221 224 226 225 222 219 220 222 222 224 225 225 228 227 226 224 219 213 210 206 208 221 229 235 254 273 281 276
194 193 194 197 184 181 193 178 173 221 225 30 159 177 209 248 217 27 303 276 267 244 229 217 203 199 198 191 187 185 182 183 185 187 191 192 191 191 190 185 183 189 192 190 188 187 187 193 201 205 208 209 208 208 209 211 213 215 216 215 216 218 220 222 222 221 221 221 221 221 221 220 222 222 220 221 220 219 222 222 221 225 229 230 228 222 217 213 212 218 229 233 233 247 258 260 262
186 184 195 207 198 197 195 180 183 197 195 147 153 179 241 237 121 355 317 304 288 246 227 219 206 199 195 188 185 181 173 173 177 184 192 191 188 188 185 184 189 192 192 190 188 187 187 191 199 204 207 209 209 209 211 212 213 216 217 215 215 217 219 221 222 222 224 224 223 223 222 221 220 222 224 225 224 220 220 220 219 221 228 232 231 229 226 225 224 227 236 236 233 243 251 250 256
177 169 195 208 207 198 162 183 191 169 159 159 171 206 287 235 152 356 331 333 345 247 211 209 205 194 188 184 183 180 172 164 165 178 188 189 185 184 184 188 192 192 190 190 188 188 188 192 199 204 207 209 210 210 212 213 214 216 217 215 215 217 218 219 222 224 227 229 229 228 227 226 223 223 226 227 226 223 220 221 222 225 232 235 235 235 234 235 236 236 241 241 235 242 251 256 262
139 180 199 181 190 217 184 149 111 162 222 177 180 227 260 190 199 54 20 23 38 49 189 195 197 186 185 186 184 180 172 163 161 165 167 174 180 183 188 193 193 191 191 192 192 193 193 195 199 202 204 208 210 211 213 214 215 217 217 217 217 217 218 217 220 224 228 232 233 232 229 229 227 224 225 226 227 224 220 220 222 228 239 243 240 239 237 237 239 239 242 246 242 245 257 263 266
145 191 176 113 58 256 241 204 165 200 223 177 186 231 235 218 210 89 45 40 46 53 131 173 187 185 189 192 189 180 169 162 158 154 150 155 174 187 192 195 195 193 194 195 195 195 196 197 198 198 201 206 209 210 211 213 216 217 218 220 220 220 219 217 217 223 229 233 233 230 228 229 228 224 222 224 227 224 220 219 222 230 243 249 246 243 241 238 237 239 247 255 256 256 263 267 268
282 207 161 147 197 196 175 221 205 198 213 178 182 229 245 233 217 98 72 48 47 73 111 161 181 184 189 191 191 181 165 157 154 152 151 159 181 196 196 194 192 193 197 197 194 194 196 197 197 197 202 207 207 205 207 212 215 215 219 222 224 223 221 220 221 224 229 231 229 228 228 229 228 225 224 226 227 224 221 220 225 234 244 252 251 248 247 243 238 243 251 255 260 267 270 269 268
274 173 182 204 253 194 177 205 221 208 211 193 182 200 226 221 152 109 124 73 56 111 112 142 170 177 184 183 188 182 160 151 150 146 145 154 176 193 194 189 188 193 199 196 194 196 197 196 196 197 199 202 203 200 203 211 212 213 218 223 225 225 223 223 225 226 228 229 229 229 230 228 227 226 228 230 229 226 224 223 224 231 234 243 251 250 250 249 245 248 254 254 260 269 270 267 263
192 194 193 198 221 212 191 191 256 238 207 194 207 213 191 116 103 138 140 90 78 108 103 98 131 150 166 171 172 163 151 148 140 139 144 145 151 164 177 185 189 192 194 194 198 202 200 198 199 202 203 203 203 201 204 208 209 211 217 222 225 226 225 225 226 228 228 229 232 234 233 231 230 230 231 233 231 226 226 225 225 227 229 238 251 255 256 256 255 259 264 265 266 271 269 265 264
250 202 197 204 199 188 198 198 180 268 230 197 225 226 147 99 152 167 130 102 107 123 120 113 121 130 142 156 152 143 149 154 147 146 145 133 132 138 155 168 167 168 179 190 197 202 203 204 206 207 208 208 207 206 208 210 211 213 217 219 222 224 226 225 224 226 227 227 232 236 237 236 234 234 235 234 229 226 229 229 229 232 234 239 250 258 261 264 265 268 270 266 265 269 270 266 266